Location: Half Hollow Hills
(40.8015°N, 73.3588°W)
Time: 11:41:02
(UTC-04:00)

Tiangong 2 - Visible Passes

Search period start: 23 June 2018 00:00
Search period end: 03 July 2018 00:00
Orbit: 291 x 296 km, 42.8° (Epoch: 21 June)

Date Brightness Start Highest point End Pass type
(mag) Time Alt. Az. Time Alt. Az. Time Alt. Az.
25 Jun 3.1 04:41:13 10° S 04:42:29 13° SSE 04:43:46 10° ESE visible
26 Jun 2.2 04:45:59 10° SSW 04:48:08 24° SSE 04:50:17 10° E visible
27 Jun 1.1 04:51:19 10° SW 04:53:46 45° SSE 04:56:15 10° E visible
28 Jun 3.2 03:25:53 13° SE 03:25:53 13° SE 03:26:34 10° ESE visible
29 Jun 2.1 03:30:59 25° SE 03:30:59 25° SE 03:32:40 10° E visible
30 Jun 0.8 03:36:00 50° SE 03:36:00 50° SE 03:38:21 10° E visible
01 Jul 0.4 03:40:56 64° WSW 03:41:15 89° SW 03:43:49 10° ENE visible
02 Jul 0.8 03:45:48 35° WNW 03:46:38 62° N 03:49:10 10° ENE visible
